Weather History for Canby, MN

Change the Weather History Date:

Tuesday, January 22, 2013

  Actual Average (KMML) Record (KMML)
Temperature  
Mean Temperature 3 °F -  
Max Temperature 14 °F 28 °F 51 °F (1981)
Min Temperature -8 °F 7 °F -26 °F (1949)
Degree Days  
Heating Degree Days 62    
Moisture  
Dew Point -4 °F    
Average Humidity 74    
Maximum Humidity 87    
Minimum Humidity 56    
Precipitation  
Precipitation 0.00 in - - ()
Sea Level Pressure  
Sea Level Pressure 30.28 in    
Wind  
Wind Speed 4 mph (SW)    
Max Wind Speed 9 mph    
Max Gust Speed -    
Visibility 10 miles    
Events Snow    
Averages and records for this station are not official NWS values.
T = Trace of Precipitation, MM = Missing Value Source: NWS Daily Summary

Daily Weather History Graph

Daily Weather History Graph

Search for Another Location

Airport:

Trip Planner

Search our weather history database for the weather conditions in past years. The results will help you decide how hot, cold, wet, or windy it might be!

Date:

Astronomy

Jan. 22, 2013 Rise Set
Actual Time 7:53 AM CST 5:20 PM CST
Civil Twilight 7:21 AM CST 5:52 PM CST
Nautical Twilight 6:46 AM CST 6:27 PM CST
Astronomical Twilight 6:11 AM CST 7:02 PM CST
Moon 1:42 PM CST (1/22) 4:17 AM CST (1/22)
Length of Visible Light 10h 30m
Length of Day
9h 26m
Waxing Gibbous, 83% of the Moon is Illuminated
Jan 22
Waxing Gibbous
Jan 26
Full
Feb 3
Last Quarter
Feb 10
New
Feb 17
First Quarter

Hourly Weather History & Observations

Time (CST) Temp. Windchill Dew Point Humidity Pressure Visibility Wind Dir Wind Speed Gust Speed Precip Events Conditions
12:16 AM -1.3 °F -16.8 °F -8.5 °F 72% 30.30 in 10.0 mi WNW 9.2 mph - N/A   Clear
12:35 AM -0.9 °F -15.3 °F -8.0 °F 72% 30.30 in 10.0 mi WNW 8.1 mph - N/A   Clear
12:55 AM -0.9 °F -15.3 °F -8.0 °F 72% 30.31 in 10.0 mi WNW 8.1 mph - N/A   Clear
1:15 AM -1.3 °F -15.7 °F -8.1 °F 73% 30.31 in 10.0 mi WNW 8.1 mph - N/A   Clear
1:35 AM -1.5 °F -16.0 °F -8.1 °F 73% 30.31 in 10.0 mi WNW 8.1 mph - N/A   Clear
1:56 AM -2.4 °F -15.8 °F -8.5 °F 75% 30.32 in 10.0 mi WNW 6.9 mph - N/A   Clear
2:16 AM -2.9 °F -15.0 °F -8.7 °F 76% 30.32 in 10.0 mi WNW 5.8 mph - N/A   Clear
2:36 AM -3.1 °F -13.5 °F -9.2 °F 75% 30.32 in 10.0 mi WNW 4.6 mph - N/A   Clear
2:56 AM -3.3 °F - -9.4 °F 75% 30.32 in 10.0 mi Calm Calm - N/A   Clear
3:15 AM -5.1 °F - -10.5 °F 78% 30.32 in 10.0 mi Calm Calm - N/A   Clear
3:35 AM -4.7 °F - -9.6 °F 80% 30.32 in 10.0 mi Calm Calm - N/A   Clear
3:56 AM -6.7 °F - -11.0 °F 81% 30.32 in 10.0 mi Calm Calm - N/A   Clear
4:16 AM -6.2 °F - -10.7 °F 81% 30.32 in 10.0 mi Calm Calm - N/A   Clear
4:35 AM -6.7 °F - -10.8 °F 82% 30.32 in 10.0 mi Calm Calm - N/A   Clear
4:56 AM -7.1 °F - -10.8 °F 84% 30.32 in 10.0 mi Calm Calm - N/A   Clear
5:16 AM -8.5 °F - -12.5 °F 83% 30.32 in 10.0 mi Calm Calm - N/A   Clear
5:35 AM -8.3 °F - -13.0 °F 80% 30.32 in 10.0 mi Calm Calm - N/A   Clear
5:56 AM -7.8 °F -16.7 °F -12.3 °F 81% 30.32 in 10.0 mi WSW 3.5 mph - N/A   Clear
6:16 AM -5.6 °F - -10.5 °F 79% 30.33 in 10.0 mi Calm Calm - N/A   Clear
6:35 AM -5.1 °F - -9.8 °F 80% 30.32 in 10.0 mi Calm Calm - N/A   Clear
6:56 AM -4.0 °F - -9.2 °F 78% 30.32 in 10.0 mi Calm Calm - N/A   Clear
7:15 AM -3.1 °F -11.4 °F -9.2 °F 75% 30.32 in 10.0 mi West 3.5 mph - N/A   Clear
7:35 AM -3.3 °F -11.6 °F -9.8 °F 74% 30.31 in 10.0 mi WSW 3.5 mph - N/A   Clear
7:56 AM -4.0 °F -12.4 °F -10.3 °F 74% 30.33 in 10.0 mi West 3.5 mph - N/A   Clear
8:16 AM -4.9 °F - -10.7 °F 76% 30.33 in 10.0 mi Calm Calm - N/A   Clear
8:35 AM -4.9 °F - -10.3 °F 78% 30.33 in 10.0 mi Calm Calm - N/A   Clear
8:55 AM -2.7 °F - -9.2 °F 74% 30.32 in 10.0 mi Calm Calm - N/A   Clear
9:16 AM -2.9 °F - -9.4 °F 74% 30.34 in 10.0 mi Calm Calm - N/A   Clear
9:36 AM -2.2 °F - -9.8 °F 70% 30.34 in 10.0 mi Calm Calm - N/A   Clear
9:55 AM -1.3 °F - -9.4 °F 69% 30.34 in 10.0 mi Calm Calm - N/A   Clear
10:16 AM 0.3 °F - -7.4 °F 70% 30.35 in 10.0 mi Calm Calm - N/A   Clear
10:36 AM 1.4 °F - -6.3 °F 70% 30.34 in 10.0 mi Calm Calm - N/A   Scattered Clouds
10:55 AM 3.0 °F -4.4 °F -5.4 °F 68% 30.34 in 10.0 mi WSW 3.5 mph - N/A   Scattered Clouds
11:16 AM 4.1 °F -6.7 °F -5.1 °F 66% 30.34 in 10.0 mi WSW 5.8 mph - N/A   Mostly Cloudy
11:35 AM 4.8 °F -4.3 °F -4.5 °F 65% 30.33 in 10.0 mi SW 4.6 mph - N/A   Overcast
11:56 AM 5.7 °F -4.8 °F -5.4 °F 60% 30.32 in 10.0 mi SW 5.8 mph - N/A   Overcast
12:16 PM 6.3 °F -4.1 °F -4.9 °F 60% 30.32 in 10.0 mi SW 5.8 mph - N/A   Overcast
12:35 PM 6.4 °F -2.4 °F -4.0 °F 62% 30.30 in 10.0 mi SW 4.6 mph - N/A   Overcast
12:56 PM 6.8 °F -2.0 °F -4.2 °F 61% 30.29 in 10.0 mi SW 4.6 mph - N/A   Overcast
1:15 PM 7.3 °F -2.8 °F -3.3 °F 62% 30.29 in 10.0 mi WSW 5.8 mph - N/A   Overcast
1:36 PM 8.2 °F -1.8 °F -2.7 °F 61% 30.27 in 10.0 mi SSW 5.8 mph - N/A   Overcast
1:55 PM 8.6 °F 0.1 °F -2.0 °F 62% 30.27 in 10.0 mi West 4.6 mph - N/A   Overcast
2:15 PM 9.5 °F 3.0 °F -2.0 °F 60% 30.27 in 10.0 mi WSW 3.5 mph - N/A   Overcast
2:36 PM 10.2 °F - -2.0 °F 58% 30.27 in 10.0 mi Calm Calm - N/A   Mostly Cloudy
2:55 PM 10.9 °F - -2.2 °F 56% 30.27 in 10.0 mi Calm Calm - N/A   Mostly Cloudy
3:15 PM 11.1 °F - -1.8 °F 56% 30.27 in 10.0 mi Calm Calm - N/A   Overcast
3:36 PM 10.8 °F - -0.6 °F 60% 30.26 in 10.0 mi Calm Calm - N/A   Scattered Clouds
3:55 PM 11.1 °F - -0.9 °F 58% 30.26 in 10.0 mi Calm Calm - N/A   Clear
4:16 PM 10.9 °F - -0.4 °F 60% 30.25 in 10.0 mi Calm Calm - N/A   Clear
4:36 PM 10.6 °F - 0.3 °F 63% 30.25 in 10.0 mi Calm Calm - N/A   Clear
4:55 PM 9.7 °F 3.2 °F 0.5 °F 66% 30.24 in 10.0 mi East 3.5 mph - N/A   Clear
5:16 PM 9.0 °F 2.4 °F 0.7 °F 69% 30.23 in 10.0 mi ESE 3.5 mph - N/A   Clear
5:36 PM 7.9 °F - 1.8 °F 76% 30.23 in 10.0 mi Calm Calm - N/A   Mostly Cloudy
5:56 PM 7.7 °F 1.0 °F 1.9 °F 77% 30.22 in 10.0 mi SE 3.5 mph - N/A   Overcast
6:16 PM 8.1 °F - 2.3 °F 77% 30.23 in 10.0 mi Calm Calm - N/A   Overcast
6:35 PM 8.2 °F - 2.7 °F 78% 30.23 in 7.0 mi Calm Calm - N/A Snow Light Snow
6:56 PM 8.4 °F - 3.9 °F 82% 30.23 in 10.0 mi Calm Calm - N/A Snow Light Snow
7:15 PM 8.4 °F -0.1 °F 4.1 °F 83% 30.22 in 10.0 mi East 4.6 mph - N/A   Overcast
7:35 PM 7.9 °F -0.7 °F 3.6 °F 83% 30.21 in 10.0 mi ESE 4.6 mph - N/A   Overcast
7:56 PM 8.2 °F -1.8 °F 4.1 °F 83% 30.19 in 10.0 mi SE 5.8 mph - N/A   Overcast
8:15 PM 8.4 °F 1.8 °F 4.1 °F 83% 30.20 in 10.0 mi ESE 3.5 mph - N/A   Overcast
8:36 PM 8.4 °F -1.6 °F 4.1 °F 83% 30.19 in 10.0 mi SE 5.8 mph - N/A Snow Light Snow
8:56 PM 8.6 °F -2.6 °F 4.6 °F 84% 30.18 in 10.0 mi SE 6.9 mph - N/A Snow Light Snow
9:16 PM 8.6 °F -1.3 °F 4.8 °F 85% 30.18 in 10.0 mi SE 5.8 mph - N/A Snow Light Snow
9:35 PM 9.1 °F 0.8 °F 5.4 °F 85% 30.18 in 10.0 mi SE 4.6 mph - N/A Snow Light Snow
9:56 PM 9.3 °F 1.0 °F 5.9 °F 86% 30.17 in 10.0 mi SE 4.6 mph - N/A Snow Light Snow
10:15 PM 9.9 °F 3.4 °F 6.3 °F 85% 30.17 in 10.0 mi SE 3.5 mph - N/A Snow Light Snow
10:36 PM 10.0 °F 3.6 °F 6.4 °F 85% 30.17 in 10.0 mi SE 3.5 mph - N/A   Overcast
10:55 PM 10.6 °F - 7.5 °F 87% 30.16 in 10.0 mi Calm Calm - N/A   Overcast
11:16 PM 12.0 °F - 8.8 °F 87% 30.17 in 10.0 mi Calm Calm - N/A Snow Light Snow
11:35 PM 14.0 °F - 9.5 °F 82% 30.17 in 10.0 mi Calm Calm - N/A   Overcast
11:56 PM 13.8 °F - 10.2 °F 86% 30.16 in 1.5 mi Calm Calm - N/A Snow Light Snow